Time,TemperatureF,DewpointF,PressureIn,WindDirection,WindDirectionDegrees,WindSpeedMPH,WindSpeedGustMPH,Humidity,HourlyPrecipIn,Conditions,Clouds,dailyrainin,SoftwareType,DateUTC
2013-06-01 00:08:00,60.4,59.0,29.52,West,275,0.0,0.0,96,0.00,,,0.13,weatherlink.com 1.10,2013-06-01 05:08:00,
2013-06-01 00:23:00,60.4,59.0,29.52,West,275,0.0,0.0,96,0.00,,,0.00,weatherlink.com 1.10,2013-06-01 05:23:00,
2013-06-01 00:38:00,60.2,59.0,29.52,West,275,0.0,0.0,96,0.00,,,0.00,weatherlink.com 1.10,2013-06-01 05:38:00,
2013-06-01 00:53:00,60.0,59.0,29.51,West,275,0.0,0.0,96,0.00,,,0.00,weatherlink.com 1.10,2013-06-01 05:53:00,
2013-06-01 01:08:00,59.8,59.0,29.52,West,275,0.0,0.0,96,0.00,,,0.00,weatherlink.com 1.10,2013-06-01 06:08:00,
2013-06-01 01:23:00,59.3,58.0,29.52,West,275,0.0,0.0,96,0.00,,,0.00,weatherlink.com 1.10,2013-06-01 06:23:00,
2013-06-01 01:38:00,59.1,58.0,29.52,West,275,0.0,1.0,96,0.00,,,0.00,weatherlink.com 1.10,2013-06-01 06:38:00,
2013-06-01 01:53:00,58.9,58.0,29.52,East,88,0.0,1.0,95,0.00,,,0.00,weatherlink.com 1.10,2013-06-01 06:53:00,
2013-06-01 02:08:00,58.7,57.0,29.52,NE,34,0.0,2.0,94,0.00,,,0.00,weatherlink.com 1.10,2013-06-01 07:08:00,
2013-06-01 02:23:00,58.7,57.0,29.53,NE,34,0.0,0.0,95,0.00,,,0.00,weatherlink.com 1.10,2013-06-01 07:23:00,
2013-06-01 02:38:00,58.7,57.0,29.53,NE,34,0.0,0.0,94,0.00,,,0.00,weatherlink.com 1.10,2013-06-01 07:38:00,
2013-06-01 02:53:00,58.6,57.0,29.53,NE,34,0.0,0.0,94,0.00,,,0.00,weatherlink.com 1.10,2013-06-01 07:53:00,
2013-06-01 03:08:00,58.5,57.0,29.53,NE,34,0.0,0.0,93,0.00,,,0.00,weatherlink.com 1.10,2013-06-01 08:08:00,
2013-06-01 03:23:00,58.4,57.0,29.53,NE,34,0.0,0.0,94,0.00,,,0.00,weatherlink.com 1.10,2013-06-01 08:23:00,
2013-06-01 03:38:00,58.4,57.0,29.53,NE,34,0.0,0.0,94,0.00,,,0.00,weatherlink.com 1.10,2013-06-01 08:38:00,
2013-06-01 03:53:00,58.4,57.0,29.53,NE,34,0.0,0.0,94,0.00,,,0.00,weatherlink.com 1.10,2013-06-01 08:53:00,
2013-06-01 04:08:00,58.0,56.0,29.53,NE,34,0.0,0.0,94,0.00,,,0.00,weatherlink.com 1.10,2013-06-01 09:08:00,
2013-06-01 04:23:00,57.4,55.0,29.52,NE,34,0.0,0.0,93,0.00,,,0.00,weatherlink.com 1.10,2013-06-01 09:23:00,
2013-06-01 04:38:00,56.7,55.0,29.53,NE,34,0.0,0.0,94,0.00,,,0.00,weatherlink.com 1.10,2013-06-01 09:38:00,
2013-06-01 04:53:00,56.5,55.0,29.53,NE,34,0.0,0.0,95,0.00,,,0.00,weatherlink.com 1.10,2013-06-01 09:53:00,
2013-06-01 05:08:00,56.6,55.0,29.53,NE,34,0.0,0.0,95,0.00,,,0.00,weatherlink.com 1.10,2013-06-01 10:08:00,
2013-06-01 05:23:00,56.6,55.0,29.54,NE,34,0.0,0.0,95,0.00,,,0.00,weatherlink.com 1.10,2013-06-01 10:23:00,
2013-06-01 05:38:00,56.3,55.0,29.54,NE,34,0.0,0.0,95,0.00,,,0.00,weatherlink.com 1.10,2013-06-01 10:38:00,
2013-06-01 05:53:00,56.1,55.0,29.54,NE,34,0.0,0.0,95,0.00,,,0.00,weatherlink.com 1.10,2013-06-01 10:53:00,
2013-06-01 06:08:00,55.8,54.0,29.55,NE,34,0.0,0.0,94,0.00,,,0.00,weatherlink.com 1.10,2013-06-01 11:08:00,
2013-06-01 06:23:00,55.6,54.0,29.56,NE,34,0.0,0.0,94,0.00,,,0.00,weatherlink.com 1.10,2013-06-01 11:23:00,
2013-06-01 06:38:00,55.8,54.0,29.56,NE,34,0.0,0.0,95,0.00,,,0.00,weatherlink.com 1.10,2013-06-01 11:38:00,
2013-06-01 06:53:00,58.0,56.0,29.57,NE,34,0.0,0.0,93,0.00,,,0.00,weatherlink.com 1.10,2013-06-01 11:53:00,
2013-06-01 07:08:00,59.9,56.0,29.56,West,278,0.0,2.0,88,0.00,,,0.00,weatherlink.com 1.10,2013-06-01 12:08:00,
2013-06-01 07:23:00,61.1,57.0,29.55,WSW,243,0.0,2.0,86,0.00,,,0.00,weatherlink.com 1.10,2013-06-01 12:23:00,
2013-06-01 07:38:00,61.5,57.0,29.56,SSE,155,0.0,2.0,84,0.00,,,0.00,weatherlink.com 1.10,2013-06-01 12:38:00,
2013-06-01 07:54:00,61.9,56.0,29.57,SSE,156,0.0,2.0,82,0.00,,,0.00,weatherlink.com 1.10,2013-06-01 12:54:00,
2013-06-01 08:09:00,62.7,57.0,29.57,ESE,112,0.0,2.0,82,0.00,,,0.00,weatherlink.com 1.10,2013-06-01 13:09:00,
2013-06-01 08:24:00,62.6,56.0,29.58,SW,217,0.0,3.0,80,0.00,,,0.00,weatherlink.com 1.10,2013-06-01 13:24:00,
2013-06-01 08:39:00,62.8,57.0,29.58,South,173,0.0,2.0,80,0.00,,,0.00,weatherlink.com 1.10,2013-06-01 13:39:00,
2013-06-01 08:54:00,64.0,57.0,29.59,West,275,0.0,3.0,77,0.00,,,0.00,weatherlink.com 1.10,2013-06-01 13:54:00,
2013-06-01 09:09:00,64.5,57.0,29.59,SSW,205,0.0,2.0,77,0.00,,,0.00,weatherlink.com 1.10,2013-06-01 14:09:00,
2013-06-01 09:24:00,64.7,57.0,29.59,SW,224,0.0,4.0,76,0.00,,,0.00,weatherlink.com 1.10,2013-06-01 14:24:00,
2013-06-01 09:39:00,66.5,58.0,29.59,NE,49,0.0,2.0,73,0.00,,,0.00,weatherlink.com 1.10,2013-06-01 14:39:00,
2013-06-01 09:54:00,66.7,57.0,29.59,ENE,59,0.0,2.0,72,0.00,,,0.00,weatherlink.com 1.10,2013-06-01 14:54:00,
2013-06-01 10:09:00,65.6,56.0,29.60,SW,215,0.0,6.0,72,0.00,,,0.00,weatherlink.com 1.10,2013-06-01 15:09:00,
2013-06-01 10:24:00,66.7,57.0,29.60,SW,233,2.0,4.0,71,0.00,,,0.00,weatherlink.com 1.10,2013-06-01 15:24:00,
2013-06-01 10:39:00,68.6,59.0,29.60,ENE,65,0.0,3.0,72,0.00,,,0.00,weatherlink.com 1.10,2013-06-01 15:39:00,
2013-06-01 10:54:00,69.6,58.0,29.60,NE,46,1.0,3.0,67,0.00,,,0.00,weatherlink.com 1.10,2013-06-01 15:54:00,
2013-06-01 11:09:00,69.3,58.0,29.60,ENE,75,1.0,4.0,68,0.00,,,0.00,weatherlink.com 1.10,2013-06-01 16:09:00,
2013-06-01 11:24:00,70.1,57.0,29.60,NNE,15,0.0,3.0,63,0.00,,,0.00,weatherlink.com 1.10,2013-06-01 16:24:00,
2013-06-01 11:39:00,69.5,57.0,29.61,SSE,166,0.0,4.0,65,0.00,,,0.00,weatherlink.com 1.10,2013-06-01 16:39:00,
2013-06-01 11:54:00,69.8,57.0,29.61,NNW,335,0.0,4.0,64,0.00,,,0.00,weatherlink.com 1.10,2013-06-01 16:54:00,
2013-06-01 12:09:00,70.1,58.0,29.61,SSW,213,0.0,3.0,65,0.00,,,0.00,weatherlink.com 1.10,2013-06-01 17:09:00,
2013-06-01 12:24:00,70.4,57.0,29.60,NNW,329,0.0,4.0,62,0.00,,,0.00,weatherlink.com 1.10,2013-06-01 17:24:00,
2013-06-01 12:39:00,70.5,57.0,29.60,SSW,210,0.0,4.0,62,0.00,,,0.00,weatherlink.com 1.10,2013-06-01 17:39:00,
2013-06-01 12:54:00,69.9,57.0,29.61,SSE,158,0.0,5.0,63,0.00,,,0.00,weatherlink.com 1.10,2013-06-01 17:54:00,
2013-06-01 13:09:00,71.2,57.0,29.61,SSW,205,0.0,3.0,61,0.00,,,0.00,weatherlink.com 1.10,2013-06-01 18:09:00,
2013-06-01 13:24:00,71.5,57.0,29.61,SSW,198,0.0,1.0,61,0.00,,,0.00,weatherlink.com 1.10,2013-06-01 18:24:00,
2013-06-01 13:39:00,71.3,57.0,29.61,SSE,156,0.0,2.0,60,0.00,,,0.00,weatherlink.com 1.10,2013-06-01 18:39:00,
2013-06-01 13:54:00,71.0,56.0,29.62,WSW,244,0.0,2.0,59,0.00,,,0.00,weatherlink.com 1.10,2013-06-01 18:54:00,
2013-06-01 14:09:00,70.6,57.0,29.62,SE,140,0.0,2.0,62,0.00,,,0.00,weatherlink.com 1.10,2013-06-01 19:09:00,
2013-06-01 14:24:00,67.8,58.0,29.63,SE,139,1.0,14.0,70,0.01,,,0.01,weatherlink.com 1.10,2013-06-01 19:24:00,
2013-06-01 14:39:00,64.7,59.0,29.65,East,84,0.0,8.0,81,0.05,,,0.05,weatherlink.com 1.10,2013-06-01 19:39:00,
2013-06-01 14:54:00,62.4,59.0,29.66,SSW,210,0.0,5.0,88,0.16,,,0.16,weatherlink.com 1.10,2013-06-01 19:54:00,
2013-06-01 15:09:00,62.3,60.0,29.66,NNE,24,2.0,8.0,91,0.17,,,0.17,weatherlink.com 1.10,2013-06-01 20:09:00,
2013-06-01 15:24:00,63.1,61.0,29.66,SSW,200,3.0,7.0,91,0.16,,,0.17,weatherlink.com 1.10,2013-06-01 20:24:00,
2013-06-01 15:39:00,63.6,60.0,29.67,South,178,1.0,10.0,88,0.11,,,0.17,weatherlink.com 1.10,2013-06-01 20:39:00,
2013-06-01 15:54:00,63.9,60.0,29.67,SW,217,9.0,10.0,88,0.00,,,0.17,weatherlink.com 1.10,2013-06-01 20:54:00,
2013-06-01 16:09:00,64.4,61.0,29.68,SW,216,4.0,11.0,87,0.00,,,0.17,weatherlink.com 1.10,2013-06-01 21:09:00,
2013-06-01 16:24:00,63.5,60.0,29.68,SSW,202,2.0,12.0,87,0.00,,,0.17,weatherlink.com 1.10,2013-06-01 21:24:00,
2013-06-01 16:40:00,62.5,57.0,29.70,SW,215,15.0,16.0,81,0.00,,,0.17,weatherlink.com 1.10,2013-06-01 21:40:00,
2013-06-01 16:55:00,63.1,58.0,29.70,SSW,206,6.0,10.0,82,0.00,,,0.17,weatherlink.com 1.10,2013-06-01 21:55:00,
2013-06-01 17:10:00,62.8,56.0,29.71,SW,230,7.0,14.0,77,0.00,,,0.17,weatherlink.com 1.10,2013-06-01 22:10:00,
2013-06-01 17:25:00,62.4,55.0,29.72,WNW,302,4.0,10.0,77,0.00,,,0.17,weatherlink.com 1.10,2013-06-01 22:25:00,
2013-06-01 17:40:00,61.5,55.0,29.73,South,176,1.0,11.0,78,0.00,,,0.17,weatherlink.com 1.10,2013-06-01 22:40:00,
2013-06-01 17:55:00,60.8,54.0,29.74,West,275,0.0,10.0,78,0.00,,,0.17,weatherlink.com 1.10,2013-06-01 22:55:00,
2013-06-01 18:10:00,59.8,53.0,29.75,SSW,200,2.0,10.0,77,0.00,,,0.17,weatherlink.com 1.10,2013-06-01 23:10:00,
2013-06-01 18:25:00,58.8,52.0,29.76,SE,126,1.0,13.0,77,0.00,,,0.17,weatherlink.com 1.10,2013-06-01 23:25:00,
2013-06-01 18:40:00,58.2,51.0,29.77,SW,222,4.0,10.0,77,0.00,,,0.17,weatherlink.com 1.10,2013-06-01 23:40:00,
2013-06-01 18:55:00,57.5,50.0,29.78,NNW,333,3.0,9.0,77,0.00,,,0.17,weatherlink.com 1.10,2013-06-01 23:55:00,
2013-06-01 19:10:00,56.3,50.0,29.79,SSE,160,3.0,11.0,78,0.00,,,0.17,weatherlink.com 1.10,2013-06-02 00:10:00,
2013-06-01 19:25:00,55.5,49.0,29.80,West,265,7.0,11.0,78,0.00,,,0.17,weatherlink.com 1.10,2013-06-02 00:25:00,
2013-06-01 19:40:00,55.4,49.0,29.81,SW,217,4.0,10.0,79,0.00,,,0.17,weatherlink.com 1.10,2013-06-02 00:40:00,
2013-06-01 19:55:00,55.1,48.0,29.82,SSW,211,7.0,9.0,76,0.00,,,0.17,weatherlink.com 1.10,2013-06-02 00:55:00,
2013-06-01 20:10:00,54.4,47.0,29.83,SSE,154,3.0,13.0,76,0.00,,,0.17,weatherlink.com 1.10,2013-06-02 01:10:00,
2013-06-01 20:25:00,54.0,47.0,29.84,SW,229,2.0,13.0,77,0.00,,,0.17,weatherlink.com 1.10,2013-06-02 01:25:00,
2013-06-01 20:40:00,53.7,47.0,29.84,SW,234,9.0,13.0,78,0.00,,,0.17,weatherlink.com 1.10,2013-06-02 01:40:00,
2013-06-01 20:55:00,53.4,46.0,29.85,NW,321,4.0,8.0,77,0.00,,,0.17,weatherlink.com 1.10,2013-06-02 01:55:00,
2013-06-01 21:10:00,53.0,46.0,29.86,South,184,1.0,14.0,77,0.00,,,0.17,weatherlink.com 1.10,2013-06-02 02:10:00,
2013-06-01 21:25:00,52.8,46.0,29.86,South,188,3.0,10.0,77,0.00,,,0.17,weatherlink.com 1.10,2013-06-02 02:25:00,
2013-06-01 21:40:00,52.4,45.0,29.87,SW,228,6.0,8.0,77,0.00,,,0.17,weatherlink.com 1.10,2013-06-02 02:40:00,
2013-06-01 21:55:00,52.3,45.0,29.89,SW,219,2.0,7.0,77,0.00,,,0.17,weatherlink.com 1.10,2013-06-02 02:55:00,
2013-06-01 22:10:00,52.2,45.0,29.89,SW,216,5.0,7.0,77,0.00,,,0.17,weatherlink.com 1.10,2013-06-02 03:10:00,
2013-06-01 22:25:00,52.3,45.0,29.89,SSW,196,1.0,9.0,77,0.00,,,0.17,weatherlink.com 1.10,2013-06-02 03:25:00,
2013-06-01 22:40:00,52.4,45.0,29.89,WSW,257,4.0,8.0,76,0.00,,,0.17,weatherlink.com 1.10,2013-06-02 03:40:00,
2013-06-01 22:56:00,52.5,45.0,29.90,ENE,70,1.0,11.0,76,0.00,,,0.17,weatherlink.com 1.10,2013-06-02 03:56:00,
2013-06-01 23:11:00,52.5,45.0,29.90,SSW,192,0.0,11.0,76,0.00,,,0.17,weatherlink.com 1.10,2013-06-02 04:11:00,
2013-06-01 23:26:00,52.5,45.0,29.90,SW,226,4.0,12.0,77,0.00,,,0.17,weatherlink.com 1.10,2013-06-02 04:26:00,
2013-06-01 23:41:00,52.3,45.0,29.91,WSW,246,5.0,15.0,77,0.00,,,0.17,weatherlink.com 1.10,2013-06-02 04:41:00,
2013-06-01 23:56:00,52.2,45.0,29.92,SW,234,0.0,10.0,77,0.00,,,0.17,weatherlink.com 1.10,2013-06-02 04:56:00,